Vorticity
5 6 6 6 5 4 5 3 9 9 10 23 21 21 21 19 21 17 17 19 20 18 16 16 10 15 18 18 18 25 26 22 14 12 -26 17 5 14
6 6 6 4 5 5 5 10 14 17 17 27 23 25 25 19 19 21 26 28 27 28 30 27 22 7 12 15 14 15 23 27 29 16 15 -15 -7 -3
7 6 5 5 3 8 11 17 20 23 17 19 20 19 20 24 25 22 16 11 13 13 16 21 31 30 8 10 13 13 13 18 25 32 6 9 42 -9
5 4 2 8 10 16 19 22 24 15 13 15 16 23 25 23 21 18 10 15 14 7 10 16 25 29 25 8 9 13 11 8 10 25 39 2 8 33
4 7 8 11 18 18 21 21 13 15 12 20 22 20 18 18 19 15 21 25 13 11 15 24 28 35 39 13 9 8 11 10 9 7 25 35 22 19
9 7 13 16 16 22 20 15 12 11 22 21 19 16 17 19 20 19 13 19 16 17 18 24 24 36 35 42 7 9 8 11 13 12 12 14 30 18
10 11 15 20 25 18 15 10 10 22 22 19 23 18 17 16 13 4 16 23 19 24 22 20 25 31 52 40 18 9 9 10 8 7 5 5 10 15
11 15 24 25 16 11 8 9 25 20 20 22 18 16 11 11 11 14 21 19 35 25 23 28 20 31 42 30 42 7 12 9 5 2 4 4 7 4
17 26 22 14 10 10 9 28 21 20 24 19 18 17 11 9 16 20 18 25 26 23 22 35 27 29 33 31 46 19 9 10 6 5 8 1 -1 3
27 17 13 11 9 10 27 24 17 13 7 17 24 15 9 14 15 17 26 27 29 32 33 22 12 12 18 27 39 46 14 9 13 7 5 4 -2 -1
15 13 10 9 8 29 23 19 10 18 21 23 13 11 15 14 21 30 28 32 24 0 4 19 19 30 31 32 34 42 44 39 33 30 27 27 24 20
15 9 9 7 29 26 17 19 30 27 18 13 20 19 25 32 27 26 26 33 13 -4 6 16 8 -9 20 19 26 30 31 32 34 37 35 36 36 26
9 10 7 29 30 16 19 11 12 14 25 26 35 30 24 17 8 13 14 17 22 20 11 18 7 7 17 4 2 23 30 19 26 28 33 29 23 14
9 7 27 36 16 16 9 17 26 30 30 21 8 4 5 6 7 4 7 7 7 15 13 12 27 7 6 15 10 9 20 21 21 21 19 17 12 12
9 30 41 22 15 9 20 25 34 24 6 5 7 2 3 5 5 17 13 27 22 17 13 16 18 17 16 12 23 17 17 17 15 11 13 2 14 21
34 43 23 10 12 15 25 32 11 6 6 -0 13 23 26 23 25 21 19 18 19 9 7 13 15 14 15 14 16 17 14 11 9 8 10 32 15 19
39 20 14 14 14 26 26 6 6 3 6 27 30 22 22 19 10 8 7 5 13 18 17 16 17 21 26 24 20 19 15 9 9 9 12 4 10 21
19 18 16 12 26 29 6 6 2 19 35 19 22 15 6 6 9 19 30 24 9 18 24 27 38 -3 10 0 26 17 15 12 11 8 3 13 13 6
16 20 14 22 29 6 4 9 38 13 25 11 18 16 18 21 26 20 9 17 11 15 24 30 16 18 26 18 18 12 16 4 13 6 4 21 10 -1
30 14 20 29 7 1 18 29 15 15 14 11 12 12 13 14 13 13 10 6 6 7 12 17 24 23 8 9 1 15 18 14 9 19 27 13 17 -2
14 22 28 7 2 21 19 17 8 11 11 9 8 8 10 10 9 9 8 9 9 14 10 7 9 22 41 23 9 10 1 5 3 -2 3 16 7 27
21 26 6 3 27 12 15 8 9 8 7 7 7 8 8 7 5 3 3 6 6 3 5 7 9 7 5 9 26 34 29 23 23 23 20 2 1 1
25 5 6 27 5 16 8 8 6 5 6 8 9 8 7 8 8 10 10 8 8 7 10 8 7 7 4 3 4 3 3 9 17 24 27 28 29 24
Height
5586 5575 5564 5552 5539 5524 5510 5494 5473 5469 5480 5476 5454 5441 5423 5396 5385 5376 5372 5368 5364 5363 5362 5362 5366 5370 5373 5377 5380 5387 5396 5406 5417 5425 5430 5445 5454 5461
5565 5554 5541 5528 5516 5502 5485 5467 5449 5424 5413 5431 5417 5408 5396 5377 5360 5348 5344 5339 5337 5334 5332 5332 5335 5341 5347 5351 5357 5362 5370 5378 5387 5397 5402 5412 5428 5438
5543 5531 5518 5505 5491 5473 5456 5440 5424 5404 5382 5391 5378 5375 5367 5351 5341 5327 5322 5316 5312 5312 5308 5306 5306 5311 5318 5325 5333 5340 5347 5354 5361 5372 5382 5386 5395 5411
5522 5508 5495 5478 5462 5446 5429 5415 5399 5385 5363 5352 5355 5341 5334 5327 5318 5309 5301 5295 5287 5290 5286 5280 5277 5278 5287 5299 5308 5317 5325 5333 5340 5347 5357 5367 5372 5383
5501 5485 5469 5452 5437 5420 5405 5391 5377 5363 5347 5329 5324 5316 5308 5302 5295 5287 5280 5275 5271 5267 5259 5250 5248 5251 5256 5268 5281 5291 5301 5311 5321 5327 5334 5346 5357 5365
5478 5461 5445 5427 5411 5397 5383 5371 5356 5342 5327 5313 5302 5293 5287 5283 5271 5264 5265 5255 5254 5243 5231 5227 5223 5221 5225 5237 5255 5267 5278 5289 5299 5309 5319 5328 5337 5348
5456 5439 5422 5406 5391 5376 5361 5349 5334 5320 5308 5296 5285 5275 5269 5264 5254 5247 5238 5239 5237 5217 5210 5211 5203 5198 5203 5212 5228 5242 5255 5268 5281 5292 5302 5312 5321 5330
5434 5419 5402 5386 5372 5360 5346 5331 5313 5298 5289 5276 5268 5257 5253 5246 5239 5230 5223 5217 5217 5202 5192 5194 5182 5186 5186 5193 5207 5220 5235 5248 5262 5275 5286 5296 5307 5319
5411 5394 5381 5369 5355 5340 5330 5314 5301 5288 5273 5261 5253 5244 5237 5230 5223 5218 5211 5202 5196 5190 5182 5181 5175 5175 5175 5182 5189 5202 5216 5231 5245 5258 5270 5282 5293 5304
5388 5374 5361 5350 5336 5320 5307 5297 5287 5275 5263 5253 5240 5233 5222 5216 5210 5205 5198 5193 5187 5182 5178 5176 5174 5172 5171 5173 5179 5190 5203 5215 5228 5240 5253 5266 5279 5291
5372 5358 5343 5332 5319 5303 5288 5279 5271 5262 5252 5240 5230 5221 5211 5204 5198 5195 5190 5184 5182 5181 5178 5175 5173 5170 5168 5169 5172 5179 5189 5200 5212 5223 5235 5248 5261 5275
5360 5345 5331 5315 5300 5288 5275 5265 5256 5248 5240 5233 5223 5213 5204 5199 5193 5188 5185 5181 5181 5180 5177 5174 5172 5170 5170 5169 5172 5176 5183 5191 5200 5210 5220 5231 5245 5260
5342 5332 5318 5301 5286 5276 5265 5255 5245 5237 5230 5221 5214 5208 5202 5196 5191 5187 5184 5181 5179 5177 5174 5173 5171 5171 5170 5171 5173 5177 5182 5189 5197 5205 5214 5226 5240 5254
5324 5314 5299 5286 5276 5265 5256 5246 5237 5228 5221 5217 5212 5206 5200 5195 5191 5187 5182 5179 5176 5174 5173 5170 5169 5170 5171 5174 5176 5179 5183 5190 5197 5205 5215 5226 5238 5250
5306 5294 5282 5274 5266 5257 5247 5237 5230 5224 5220 5215 5210 5204 5198 5193 5188 5184 5180 5176 5174 5172 5170 5169 5168 5169 5171 5173 5176 5180 5185 5192 5199 5208 5217 5228 5238 5247
5291 5279 5271 5264 5255 5246 5238 5232 5228 5224 5218 5213 5206 5199 5193 5189 5185 5182 5178 5176 5173 5171 5170 5168 5168 5168 5170 5172 5177 5182 5187 5194 5202 5210 5219 5226 5235 5244
5276 5268 5262 5256 5248 5241 5234 5231 5227 5221 5215 5207 5200 5196 5192 5189 5186 5182 5179 5177 5174 5171 5168 5167 5168 5169 5171 5174 5178 5184 5190 5197 5204 5211 5220 5227 5235 5244
5267 5260 5255 5248 5242 5237 5235 5231 5224 5218 5211 5206 5201 5197 5193 5190 5187 5183 5180 5178 5175 5172 5169 5167 5168 5170 5174 5177 5181 5186 5192 5199 5205 5213 5221 5228 5236 5245
5260 5254 5248 5243 5239 5237 5234 5228 5222 5217 5212 5207 5203 5199 5196 5193 5189 5186 5184 5182 5180 5176 5173 5172 5172 5174 5176 5180 5184 5189 5195 5200 5207 5214 5221 5228 5236 5244
5253 5249 5245 5241 5240 5237 5232 5226 5222 5218 5214 5210 5206 5203 5200 5197 5194 5192 5189 5186 5184 5182 5180 5179 5178 5179 5181 5185 5188 5193 5198 5204 5209 5215 5222 5229 5237 5245
5251 5247 5244 5243 5240 5235 5230 5228 5224 5221 5217 5213 5210 5207 5204 5201 5199 5196 5194 5192 5190 5188 5188 5187 5186 5186 5187 5189 5193 5197 5202 5206 5211 5217 5223 5229 5236 5243
5250 5248 5246 5243 5239 5235 5232 5229 5226 5222 5219 5215 5213 5210 5207 5204 5201 5199 5197 5195 5194 5193 5193 5192 5192 5193 5194 5195 5197 5199 5202 5207 5212 5216 5221 5228 5234 5241
5252 5250 5247 5243 5240 5237 5234 5231 5228 5224 5221 5217 5214 5211 5209 5206 5204 5202 5200 5198 5197 5196 5196 5196 5197 5198 5198 5199 5202 5204 5207 5210 5213 5217 5221 5226 5232 5238